map of ALA home
ALA - Airport
Location
City:  Almaty, Almaty, Kazakhstan
Near (Alt.):Alma Ata
Name:Almaty International Airport
ICAO:UAAA
IATA:ALA

Details
Type:Airport (Aerodrome, Airfield)
Use:Public/Civil, International (customs port of entry)
Latitude:4321'20"N (43.355556)
Longitude:7702'38"E (77.043889)
Elevation:2238 ft (682 m)
Variation:5.15E (WMM2015 magnetic declination)
0.04 annual change
Runways:2
Longest:14764 × 148 ft (4500 × 45 m), paved

Time
Time Zone:UTC+6
Local Time:

Weather
METAR:UAAA 240830Z 03005MPS 360V070 9999 SCT100 BKN200 25/08 Q1019 R23R/CLRD65 NOSIG
TAF:UAAA 240500Z 2406/2506 04006MPS 9999 SCT050CB BKN100 TX26/2409Z TN08/2501Z PROB40
TEMPO 2407/2413 TS
BECMG 2413/2414 16005MPS
TEMPO 2414/2418 3000 FU

Related Locations
Nearby:
Farthest:IPC: 11258 mi / 18117 km
Easter Island (Isla de Pascua, Rapa Nui) [Mataveri Intl], VS, CL

Find:

   beyond  
but within

Other Information
Maps:
NOTAMs:
Links:
Sources:

  
flag of Kazakhstan
flag of Almaty
  

Sectional Chart

Flight Planning
at skyvector.com

Satellite Image

Google Maps Satellite view

 

Copyright © 2004-2017 Karl L. Swartz. All rights reserved.
The Great Circle Mapper name and logo are trademarks of the Great Circle Mapper.
All other trademarks mentioned herein belong to their respective owners.
Please see credits for attibutions and further copyright information.

  Follow gcmap on Facebook Follow gcmap on Twitter Follow gcmap on Google+ GCmap on LinkedIn

hCard Microformat

Geo Microformat